Pagina principale
METAR-TAF:

METAR-TAF

Aeroporti :

Monte Scuro, Italia

latitudine: 39-20N, longitudine: 016-24E, altezza: 1710 m

Osservazione

Il bollettino è stato emesso 1 ora e 13 minuti fa, alle 15:55 UTC
Vento calmo
Temperature 20°C
Umidità 73%
Pressione 1024 hPa
Visibilità 10 km o più
nessuna nube inferiore a 1500 m e nessun cumulonembo

METAR: LIBQ 201555Z 00000KT CAVOK 20/15 Q1024 RMK SKC MON LIB VAL NIL VIS MIN 9999

Ora: 19:08 (17:08 UTC)


TAF: mancante

Osservazioni e previsioni meteorologiche di più di 4000 aeroporti (messaggi METAR e TAF).

Le stazioni disponibili sono rappresentate dai dischi gialli e rossi sulla carta.

Puntare il mouse per vedere il nome della stazione.

Clicca sopra per visualizzare le osservazioni e previsioni meteorologiche.

Per cambiare la mappa : fare clic sui pulsanti verdi con una croce nera per ingrandire, il pulsante verde con un trattino per diminuire, o sulla freccia verde per le mappe adiacenti.


METAR-TAF: